When you browse on this site, cookies collect data to enhance your experience and personalize the content and advertising you see.
Visit our Privacy Policy to learn more. By continuing to use the site, you agree to this use of cookies and data.
  • In Austria
  • List of Countries
  • For 7 days
  • Water Temperature
  • Weather Map
  • News
  • Weather Widgets
  • user-avatar
    Login

    Hourly Weather La Massana

    Today, 30 May, Saturday

    Time Temperature Precipitation Wind Pressure Humidity
    00:00 +7°C° 0 mm 1 mps 610 mmHg 91%
    01:00 +7°C° 0 mm 1 mps 610 mmHg 90%
    02:00 +7°C° 0 mm 1 mps 610 mmHg 89%
    03:00 +7°C° 0 mm 1 mps 610 mmHg 88%
    04:00 +8°C° 0 mm 1 mps 610 mmHg 87%
    05:00 +9°C° 0 mm 1 mps 610 mmHg 85%
    06:00 +8°C° 0 mm 0 mps 611 mmHg 83%
    07:00 +11°C° 0 mm 1 mps 612 mmHg 75%
    08:00 +13°C° 0 mm 1 mps 613 mmHg 66%
    09:00 +15°C° 0 mm 1 mps 613 mmHg 57%
    10:00 +16°C° 0.1 mm 2 mps 613 mmHg 56%
    11:00 +16°C° 0.1 mm 2 mps 613 mmHg 55%
    12:00 +17°C° 0.1 mm 2 mps 613 mmHg 54%
    13:00 +16°C° 0.6 mm 2 mps 613 mmHg 58%
    14:00 +16°C° 0.6 mm 2 mps 613 mmHg 63%
    15:00 +15°C° 0.6 mm 1 mps 612 mmHg 68%
    16:00 +14°C° 0.4 mm 1 mps 612 mmHg 73%
    17:00 +14°C° 0.4 mm 1 mps 611 mmHg 77%
    18:00 +13°C° 0.4 mm 1 mps 611 mmHg 82%
    19:00 +12°C° 0.1 mm 1 mps 610 mmHg 86%
    20:00 +10°C° 0.1 mm 1 mps 610 mmHg 90%
    21:00 +9°C° 0.1 mm 1 mps 610 mmHg 94%
    22:00 +8°C° 0 mm 1 mps 609 mmHg 94%
    23:00 +8°C° 0 mm 1 mps 609 mmHg 93%

    Tomorrow, 31 May, Sunday

    Time Temperature Precipitation Wind Pressure Humidity
    00:00 +8°C° 0 mm 1 mps 609 mmHg 93%
    01:00 +8°C° 0 mm 1 mps 609 mmHg 92%
    02:00 +8°C° 0 mm 1 mps 609 mmHg 91%
    03:00 +7°C° 0 mm 1 mps 608 mmHg 90%
    04:00 +8°C° 0 mm 1 mps 609 mmHg 88%
    05:00 +9°C° 0 mm 1 mps 609 mmHg 86%
    06:00 +10°C° 0 mm 1 mps 610 mmHg 83%
    07:00 +12°C° 0 mm 1 mps 610 mmHg 73%
    08:00 +14°C° 0 mm 1 mps 611 mmHg 63%
    09:00 +16°C° 0 mm 1 mps 612 mmHg 53%
    10:00 +17°C° 0 mm 2 mps 613 mmHg 51%
    11:00 +18°C° 0 mm 2 mps 613 mmHg 49%
    12:00 +19°C° 0 mm 2 mps 613 mmHg 46%
    13:00 +18°C° 0.5 mm 2 mps 612 mmHg 53%
    14:00 +17°C° 0.5 mm 2 mps 612 mmHg 59%
    15:00 +18°C° 0.5 mm 1 mps 611 mmHg 66%
    16:00 +16°C° 0.7 mm 1 mps 611 mmHg 72%
    17:00 +15°C° 0.7 mm 1 mps 611 mmHg 79%
    18:00 +14°C° 0.7 mm 1 mps 610 mmHg 85%
    19:00 +12°C° 0.8 mm 1 mps 610 mmHg 88%
    20:00 +11°C° 0.8 mm 1 mps 610 mmHg 90%
    21:00 +10°C° 0.8 mm 1 mps 609 mmHg 93%
    22:00 +10°C° 0.5 mm 1 mps 610 mmHg 93%
    23:00 +10°C° 0.5 mm 1 mps 610 mmHg 92%

    Day after tomorrow, 1 June, Monday

    Time Temperature Precipitation Wind Pressure Humidity
    00:00 +10°C° 0.5 mm 1 mps 610 mmHg 91%
    01:00 +10°C° 0.1 mm 1 mps 609 mmHg 92%
    02:00 +9°C° 0.1 mm 1 mps 609 mmHg 92%
    03:00 +9°C° 0.1 mm 1 mps 609 mmHg 93%
    04:00 +9°C° 0.1 mm 1 mps 609 mmHg 92%
    05:00 +10°C° 0.1 mm 1 mps 609 mmHg 91%
    06:00 +10°C° 0.1 mm 0 mps 610 mmHg 89%
    07:00 +12°C° 0.6 mm 1 mps 610 mmHg 87%
    08:00 +12°C° 0.6 mm 1 mps 611 mmHg 85%
    09:00 +13°C° 0.6 mm 1 mps 611 mmHg 82%
    10:00 +13°C° 1.2 mm 1 mps 611 mmHg 85%
    11:00 +12°C° 1.2 mm 1 mps 611 mmHg 88%
    12:00 +12°C° 1.2 mm 1 mps 611 mmHg 91%
    13:00 +12°C° 2.1 mm 1 mps 610 mmHg 91%
    14:00 +11°C° 2.1 mm 1 mps 610 mmHg 91%
    15:00 +11°C° 2.1 mm 1 mps 610 mmHg 92%
    16:00 +11°C° 2.7 mm 1 mps 610 mmHg 93%
    17:00 +10°C° 2.7 mm 1 mps 610 mmHg 93%
    18:00 +10°C° 2.7 mm 1 mps 609 mmHg 94%
    19:00 +10°C° 0.2 mm 1 mps 610 mmHg 93%
    20:00 +9°C° 0.2 mm 1 mps 610 mmHg 91%
    21:00 +8°C° 0.2 mm 0 mps 610 mmHg 89%
    22:00 +8°C° 0 mm 0 mps 610 mmHg 89%
    23:00 +8°C° 0 mm 1 mps 610 mmHg 90%

    2 June, Tuesday

    Time Temperature Precipitation Wind Pressure Humidity
    00:00 +8°C° 0 mm 1 mps 609 mmHg 90%
    01:00 +8°C° 0 mm 1 mps 609 mmHg 90%
    02:00 +8°C° 0 mm 1 mps 609 mmHg 89%
    03:00 +8°C° 0 mm 1 mps 609 mmHg 89%
    04:00 +9°C° 0 mm 1 mps 610 mmHg 88%
    05:00 +9°C° 0 mm 1 mps 610 mmHg 88%
    06:00 +10°C° 0 mm 1 mps 611 mmHg 87%
    07:00 +12°C° 0 mm 1 mps 612 mmHg 80%
    08:00 +14°C° 0 mm 1 mps 612 mmHg 73%
    09:00 +16°C° 0 mm 1 mps 613 mmHg 66%
    10:00 +16°C° 0.4 mm 1 mps 613 mmHg 67%
    11:00 +16°C° 0.4 mm 2 mps 613 mmHg 68%
    12:00 +16°C° 0.4 mm 2 mps 613 mmHg 69%
    13:00 +16°C° 1.2 mm 2 mps 612 mmHg 72%
    14:00 +15°C° 1.2 mm 1 mps 612 mmHg 76%
    15:00 +15°C° 1.2 mm 1 mps 611 mmHg 80%
    16:00 +14°C° 1.2 mm 1 mps 611 mmHg 83%
    17:00 +13°C° 1.2 mm 1 mps 610 mmHg 87%
    18:00 +12°C° 1.2 mm 0 mps 610 mmHg 90%
    19:00 +12°C° 0.5 mm 1 mps 610 mmHg 90%
    20:00 +11°C° 0.5 mm 1 mps 609 mmHg 89%
    21:00 +10°C° 0.5 mm 1 mps 609 mmHg 89%
    22:00 +10°C° 0.1 mm 1 mps 609 mmHg 89%
    23:00 +10°C° 0.1 mm 1 mps 608 mmHg 89%

    3 June, Wednesday

    Time Temperature Precipitation Wind Pressure Humidity
    00:00 +9°C° 0.1 mm 1 mps 608 mmHg 89%
    01:00 +9°C° 0 mm 1 mps 608 mmHg 89%
    02:00 +9°C° 0 mm 1 mps 607 mmHg 88%
    03:00 +9°C° 0 mm 1 mps 607 mmHg 88%
    04:00 +9°C° 0 mm 1 mps 607 mmHg 86%
    05:00 +10°C° 0 mm 1 mps 607 mmHg 85%
    06:00 +10°C° 0 mm 0 mps 607 mmHg 83%
    07:00 +12°C° 0.1 mm 1 mps 607 mmHg 78%
    08:00 +13°C° 0.1 mm 1 mps 608 mmHg 73%
    09:00 +14°C° 0.1 mm 1 mps 608 mmHg 68%
    10:00 +15°C° 0.6 mm 1 mps 608 mmHg 70%
    11:00 +15°C° 0.6 mm 1 mps 608 mmHg 72%
    12:00 +15°C° 0.6 mm 2 mps 607 mmHg 74%
    13:00 +14°C° 1.3 mm 2 mps 607 mmHg 78%
    14:00 +14°C° 1.3 mm 1 mps 606 mmHg 82%
    15:00 +13°C° 1.3 mm 1 mps 605 mmHg 86%
    16:00 +13°C° 0.9 mm 1 mps 605 mmHg 88%
    17:00 +12°C° 0.9 mm 1 mps 605 mmHg 89%
    18:00 +12°C° 0.9 mm 1 mps 604 mmHg 91%
    19:00 +11°C° 2.7 mm 1 mps 604 mmHg 93%
    20:00 +10°C° 2.7 mm 2 mps 604 mmHg 95%
    21:00 +9°C° 2.7 mm 2 mps 604 mmHg 98%
    22:00 +9°C° 1.9 mm 2 mps 604 mmHg 97%
    23:00 +8°C° 1.9 mm 2 mps 603 mmHg 97%

    4 June, Thursday

    Time Temperature Precipitation Wind Pressure Humidity
    00:00 +8°C° 1.9 mm 1 mps 603 mmHg 96%
    01:00 +8°C° 0.5 mm 1 mps 603 mmHg 97%
    02:00 +8°C° 0.5 mm 1 mps 602 mmHg 97%
    03:00 +8°C° 0.5 mm 1 mps 602 mmHg 97%
    04:00 +9°C° 0.2 mm 1 mps 602 mmHg 97%
    05:00 +9°C° 0.2 mm 1 mps 602 mmHg 96%
    06:00 +9°C° 0.2 mm 1 mps 602 mmHg 95%
    07:00 +10°C° 0.2 mm 1 mps 603 mmHg 92%
    08:00 +11°C° 0.2 mm 1 mps 603 mmHg 88%
    09:00 +13°C° 0.2 mm 2 mps 604 mmHg 85%
    10:00 +13°C° 0.6 mm 2 mps 604 mmHg 85%
    11:00 +13°C° 0.6 mm 2 mps 603 mmHg 85%
    12:00 +13°C° 0.6 mm 2 mps 603 mmHg 85%
    13:00 +13°C° 0.6 mm 2 mps 603 mmHg 84%
    14:00 +13°C° 0.6 mm 2 mps 603 mmHg 83%
    15:00 +13°C° 0.6 mm 2 mps 603 mmHg 82%
    16:00 +12°C° 1.5 mm 2 mps 602 mmHg 86%
    17:00 +10°C° 1.5 mm 2 mps 602 mmHg 91%
    18:00 +9°C° 1.5 mm 2 mps 601 mmHg 95%
    19:00 +9°C° 1.4 mm 2 mps 601 mmHg 96%
    20:00 +8°C° 1.4 mm 2 mps 601 mmHg 96%
    21:00 +8°C° 1.4 mm 2 mps 601 mmHg 97%
    22:00 +7°C° 1.4 mm 2 mps 601 mmHg 97%
    23:00 +7°C° 1.4 mm 2 mps 601 mmHg 97%
    Show more